BMCB-22 Weather Reports


Display with metric or nautical units.
time (UTC)temp
F
wind
direction
speed
MPH
gust
MPH
rain 1hr
in
rain 24hr
in
rain mn
in
humidity
%
barometer
mb
20260506223100 42 18 5.0 9.0 0.00 0.27 0.00 10 1012.6
20260506222104 42 9 4.0 7.0 0.00 0.28 0.00 99 1012.4
20260506221102 42 4 4.0 7.0 0.00 0.28 0.00 99 1012.3
20260506220112 42 5 4.0 8.0 0.00 0.28 0.00 99 1012.2
20260506215109 42 352 4.0 9.0 0.00 0.29 0.28 99 1012.1
20260506214108 42 358 5.0 9.0 0.00 0.29 0.28 99 1012.0
20260506213108 41 244 4.0 7.0 0.00 0.30 0.28 99 1012.0
20260506212107 41 9 4.0 8.0 0.00 0.31 0.28 99 1012.0
20260506211106 41 8 6.0 10.0 0.00 0.31 0.28 99 1011.9
20260506205106 41 18 7.0 11.0 0.00 0.31 0.28 99 1011.9
20260506204105 41 24 6.0 10.0 0.00 0.31 0.28 99 1011.8
20260506203108 41 24 5.0 9.0 0.00 0.31 0.28 98 1011.7
20260506202109 41 22 6.0 9.0 0.00 0.32 0.28 98 1011.6
20260506201109 41 20 6.0 9.0 0.00 0.33 0.28 98 1011.4
20260506200108 41 18 7.0 9.0 0.00 0.35 0.28 98 1011.3
20260506195106 41 17 5.0 8.0 0.00 0.36 0.28 98 1011.3
20260506193108 42 18 4.0 7.0 0.00 0.37 0.28 97 1011.2
20260506192107 42 19 5.0 7.0 0.00 0.38 0.28 97 1011.1
20260506191105 42 18 5.0 8.0 0.00 0.39 0.28 97 1011.1
20260506184101 43 10 6.0 9.0 0.00 0.42 0.28 96 1010.9
20260506183107 44 13 6.0 10.0 0.00 0.43 0.28 96 1010.7
20260506182106 44 17 7.0 11.0 0.00 0.46 0.28 96 1010.6
20260506181100 44 21 8.0 11.0 0.00 0.47 0.28 96 1010.4
20260506180107 45 13 7.0 12.0 0.00 0.49 0.28 96 1010.2
20260506175105 45 10 7.0 14.0 0.00 0.50 0.28 95 1010.1
20260506174103 45 14 7.0 12.0 0.00 0.52 0.28 95 1009.9
20260506173100 45 16 8.0 13.0 0.00 0.54 0.28 96 1009.8
20260506172104 45 15 6.0 11.0 0.00 0.56 0.28 96 1009.9
20260506171102 45 18 6.0 10.0 0.00 0.57 0.28 97 1009.8
20260506170059 45 11 5.0 10.0 0.00 0.58 0.28 96 1009.8
20260506165058 45 11 6.0 10.0 0.00 0.59 0.28 97 1009.8
20260506164100 44 16 6.0 10.0 0.00 0.60 0.28 99 1009.8
20260506163059 44 15 6.0 10.0 0.00 0.61 0.28 10 1009.8
20260506162101 44 15 5.0 9.0 0.00 0.61 0.28 10 1009.9
20260506161100 44 1 5.0 9.0 0.00 0.61 0.28 10 1010.0
20260506160059 44 359 5.0 9.0 0.00 0.61 0.28 10 1010.0
20260506155101 44 8 6.0 10.0 0.00 0.63 0.28 10 1009.9
20260506154105 44 11 6.0 11.0 0.00 0.64 0.28 10 1009.7
20260506153101 44 10 7.0 12.0 0.00 0.65 0.28 10 1009.5
20260506152100 44 358 6.0 13.0 0.00 0.65 0.28 10 1009.5
20260506151104 44 1 5.0 9.0 0.00 0.65 0.28 10 1009.4
20260506150059 44 8 7.0 11.0 0.00 0.65 0.28 10 1009.4
20260506144058 44 280 5.0 11.0 0.01 0.65 0.28 10 1009.4
20260506143057 45 332 5.0 10.0 0.01 0.65 0.28 10 1009.4
20260506142059 45 334 7.0 12.0 0.01 0.66 0.28 10 1009.4
20260506141058 45 351 6.0 10.0 0.01 0.66 0.28 10 1009.3
20260506140105 44 331 6.0 12.0 0.01 0.66 0.28 10 1009.4
20260506135100 44 331 5.0 9.0 0.01 0.66 0.28 10 1009.4
20260506134059 44 340 5.0 9.0 0.00 0.65 0.28 10 1009.4
20260506133100 45 355 6.0 10.0 0.00 0.65 0.28 10 1009.4
20260506132059 44 84 7.0 12.0 0.00 0.65 0.28 10 1009.3
20260506131101 44 1 7.0 13.0 0.00 0.65 0.28 10 1009.3
20260506130059 44 360 6.0 12.0 0.00 0.65 0.28 10 1009.2
20260506125058 44 1 6.0 10.0 0.00 0.65 0.28 10 1009.1
20260506123100 44 14 8.0 14.0 0.00 0.65 0.28 10 1009.0
20260506122058 44 9 8.0 12.0 0.00 0.65 0.28 10 1008.8
20260506114058 44 1 6.0 12.0 0.00 0.65 0.28 10 1008.6
20260506113059 44 17 7.0 11.0 0.01 0.65 0.28 10 1008.5
20260506112059 44 5 7.0 11.0 0.01 0.65 0.28 10 1008.5
20260506111058 44 360 5.0 10.0 0.01 0.68 0.28 10 1008.4
20260506110057 44 360 6.0 12.0 0.02 0.69 0.28 10 1008.3
20260506105057 44 343 6.0 13.0 0.02 0.72 0.28 10 1008.3
20260506104058 44 338 6.0 12.0 0.02 0.72 0.28 10 1008.3
20260506103059 44 146 6.0 11.0 0.02 0.72 0.28 10 1008.3
20260506102059 44 7 6.0 11.0 0.02 0.72 0.27 10 1008.2
20260506101057 44 347 5.0 10.0 0.03 0.72 0.27 10 1008.3
20260506100056 44 345 5.0 12.0 0.04 0.72 0.27 10 1008.2
20260506094057 44 343 5.0 10.0 0.06 0.71 0.26 10 1008.1
20260506093058 44 331 5.0 10.0 0.06 0.71 0.26 10 1008.1
20260506092057 44 343 5.0 9.0 0.06 0.70 0.25 10 1008.0
20260506091057 44 336 3.0 7.0 0.07 0.69 0.24 10 1007.9
20260506085059 43 333 4.0 8.0 0.08 0.68 0.23 10 1007.8
20260506084055 43 352 4.0 8.0 0.07 0.66 0.21 10 1007.8
20260506083056 43 353 4.0 9.0 0.06 0.65 0.20 10 1007.7
20260506081056 43 337 5.0 8.0 0.06 0.64 0.19 10 1007.5
20260506073054 43 346 4.0 8.0 0.02 0.59 0.14 10 1007.5
20260506072053 43 3 5.0 9.0 0.02 0.59 0.14 10 1007.3
20260506062054 43 339 3.0 6.0 0.00 0.57 0.12 10 1006.9
20260506061053 43 358 4.0 8.0 0.01 0.57 0.12 10 1006.8
20260506051055 43 355 4.0 8.0 0.02 0.57 0.12 10 1006.6
20260506045052 43 8 5.0 8.0 0.02 0.56 0.11 10 1006.6
20260506044054 43 12 6.0 9.0 0.02 0.56 0.11 10 1006.5
20260506043056 44 9 5.0 8.0 0.01 0.55 0.10 10 1006.5
20260506042052 44 5 5.0 9.0 0.01 0.55 0.10 10 1006.5
20260506041053 44 19 6.0 10.0 0.02 0.55 0.10 10 1006.5
20260506040055 44 16 6.0 11.0 0.02 0.55 0.10 10 1006.6
20260506034057 44 18 6.0 11.0 0.01 0.54 0.09 10 1006.6
20260506033053 44 19 7.0 12.0 0.02 0.54 0.09 10 1006.7
20260506032054 44 15 7.0 10.0 0.02 0.54 0.09 10 1006.7
20260506031054 44 22 7.0 11.0 0.02 0.54 0.09 10 1006.6
20260506025054 44 13 7.0 10.0 0.02 0.54 0.09 10 1006.7
20260506024054 44 19 6.0 9.0 0.02 0.54 0.09 10 1006.7
20260506023056 44 20 7.0 11.0 0.02 0.54 0.09 10 1006.7
20260506022054 44 22 6.0 10.0 0.02 0.53 0.08 10 1006.8
20260506021056 44 25 7.0 9.0 0.02 0.53 0.08 10 1006.8
20260506020055 45 22 6.0 9.0 0.02 0.53 0.08 10 1006.9
20260506015056 45 19 7.0 10.0 0.02 0.52 0.07 10 1007.0
20260506014055 45 12 7.0 10.0 0.02 0.52 0.07 10 1007.0
20260506013054 45 15 6.0 9.0 0.02 0.52 0.07 10 1007.1
20260506012054 45 16 5.0 8.0 0.01 0.51 0.06 10 1007.1
20260506011056 45 15 5.0 8.0 0.01 0.51 0.06 10 1007.2
20260506005054 45 19 6.0 10.0 0.01 0.50 0.06 10 1007.1
20260506004055 45 17 6.0 10.0 0.01 0.50 0.06 10 1007.2
20260506003053 45 17 6.0 9.0 0.01 0.50 0.06 10 1007.2
20260506002056 45 20 6.0 9.0 0.02 0.50 0.06 10 1007.4
20260505235102 45 16 6.0 9.0 0.02 0.50 0.06 10 1007.7
20260505233101 46 23 5.0 9.0 0.03 0.50 0.05 10 1007.8
20260505232104 46 12 5.0 8.0 0.04 0.50 0.05 10 1007.8
20260505231102 46 15 5.0 8.0 0.04 0.49 0.04 10 1007.8
20260505225105 46 14 5.0 8.0 0.04 0.48 0.03 10 1008.0